User: anonymous   Login
Location: Bucquoy
(50.1391°N, 2.7097°E)
Time: 23:12:00
(UTC+00:00)
Language:

Okean 2 Rocket - Orbit

View from above orbital plane
View from above orbital plane
View from above satellite
View from above satellite

Ground track
Ground track

The orbit data is extracted from the following two-line orbital elements,

1 20511U 90018B   21213.35254582  .00000093  00000-0  91387-5 0  9995
2 20511  82.5247 351.3699 0016679 209.2184 179.7956 14.80086223673745
Epoch (UTC): 01 August 2021 08:27:39
Eccentricity: 0.0016679
inclination: 82.5247°
perigee height: 617 km
apogee height: 641 km
right ascension of ascending node: 351.3699°
argument of perigee: 209.2184°
revolutions per day: 14.80086223
mean anomaly at epoch: 179.7956°
orbit number at epoch: 67374

The dashed part of the orbit path shows where the satellite is in the earth's shadow,  

DLR